Keswick Reservoir Weather Center

Moon Phase Calendar



Keswick Reservoir Water Level
Online Cameras

 


      

Current Conditions in Shasta
12/2/2022 1:28:06 AM

31°F
Feels Like 27
Clear
Humidity
81%
Pressure
30.06"
Wind
4.6 mph (NW)
Dew Point
27°F
UV Index
0/10 (Low)
Visibility
6 mi

Hourly Forecast

Date & Time Fri, Dec 2
1:00 AM
Fri, Dec 2
2:00 AM
Fri, Dec 2
3:00 AM
Fri, Dec 2
4:00 AM
Fri, Dec 2
5:00 AM
Fri, Dec 2
6:00 AM
Fri, Dec 2
7:00 AM
Fri, Dec 2
8:00 AM
Fri, Dec 2
9:00 AM
Fri, Dec 2
10:00 AM
Fri, Dec 2
11:00 AM
Fri, Dec 2
12:00 PM
Fri, Dec 2
1:00 PM
Fri, Dec 2
2:00 PM
Fri, Dec 2
3:00 PM
Fri, Dec 2
4:00 PM
Fri, Dec 2
5:00 PM
Fri, Dec 2
6:00 PM
Fri, Dec 2
7:00 PM
Fri, Dec 2
8:00 PM
Fri, Dec 2
9:00 PM
Fri, Dec 2
10:00 PM
Fri, Dec 2
11:00 PM
Sat, Dec 3
12:00 AM
Sat, Dec 3
1:00 AM
Sat, Dec 3
2:00 AM
Sat, Dec 3
3:00 AM
Sat, Dec 3
4:00 AM
Sat, Dec 3
5:00 AM
Sat, Dec 3
6:00 AM
Sat, Dec 3
7:00 AM
Sat, Dec 3
8:00 AM
Sat, Dec 3
9:00 AM
Sat, Dec 3
10:00 AM
Sat, Dec 3
11:00 AM
Sat, Dec 3
12:00 PM
Sat, Dec 3
1:00 PM
Sat, Dec 3
2:00 PM
Sat, Dec 3
3:00 PM
Sat, Dec 3
4:00 PM
Sat, Dec 3
5:00 PM
Sat, Dec 3
6:00 PM
Sat, Dec 3
7:00 PM
Sat, Dec 3
8:00 PM
Sat, Dec 3
9:00 PM
Sat, Dec 3
10:00 PM
Sat, Dec 3
11:00 PM
Sun, Dec 4
12:00 AM
Condition
Clear

Clear

Clear

Clear

Clear

Clear

Clear

Clear

Clear

Clear

Clouds

Clouds

Clouds

Clouds

Clouds

Clouds

Clouds

Clouds

Clouds

Clouds

Clouds

Clouds

Clouds

Clouds

Clouds

Clouds

Clouds

Clouds

Clouds

Clouds

Clouds

Clouds

Rain

Rain

Rain

Clouds

Clouds

Rain

Rain

Rain

Rain

Rain

Rain

Clouds

Clouds

Rain

Rain

Rain
Temperature 31°F31°F31°F30°F30°F29°F29°F31°F36°F41°F44°F47°F48°F48°F47°F44°F39°F38°F37°F36°F35°F35°F34°F34°F33°F33°F33°F35°F38°F38°F39°F39°F39°F39°F39°F40°F41°F41°F41°F41°F41°F41°F41°F41°F42°F42°F41°F41°F
Feels Like 27°F27°F26°F26°F25°F24°F23°F26°F33°F41°F44°F47°F48°F48°F47°F44°F39°F35°F33°F33°F32°F31°F31°F30°F30°F29°F29°F31°F38°F38°F39°F39°F39°F39°F38°F39°F41°F41°F41°F41°F39°F41°F41°F41°F42°F42°F41°F41°F
Cloudiness 3%3%3%3%3%5%6%8%8%9%19%24%28%31%29%41%100%100%100%100%100%100%100%100%100%89%84%82%100%99%100%100%100%100%100%100%100%100%100%100%100%100%100%100%100%100%100%100%
Visibility 6 mi6 mi6 mi6 mi6 mi6 mi6 mi6 mi6 mi6 mi6 mi6 mi6 mi6 mi6 mi6 mi6 mi6 mi6 mi6 mi6 mi6 mi6 mi6 mi6 mi6 mi6 mi6 mi6 mi6 mi6 mi6 mi6 mi6 mi6 mi6 mi6 mi6 mi6 mi6 mi6 mi6 mi6 mi6 mi6 mi6 mi3 mi1 mi
Precipitation 0%0%0%0%0%0%0%0%0%0%0%0%0%0%0%0%0%0%0%0%0%0%0%0%0%0%0%0%0%0%4%29%41%49%45%41%45%50%61%61%78%73%73%72%78%90%73%87%
Humidity 81%80%79%79%78%78%77%71%59%51%48%47%47%47%47%58%67%70%72%73%73%73%72%72%72%73%72%68%63%64%66%71%78%87%91%91%90%91%93%94%95%96%96%96%96%97%98%99%
Dew Point 27°F26°F26°F25°F24°F20°F20°F20°F21°F22°F24°F25°F27°F27°F26°F28°F27°F26°F26°F26°F25°F25°F24°F24°F23°F22°F22°F23°F24°F25°F26°F28°F30°F33°F35°F36°F36°F37°F37°F37°F37°F38°F38°F38°F38°F39°F39°F39°F
Pressure 30.06"30.09"30.12"30.18"30.21"30.24"30.27"30.27"30.27"30.27"30.24"30.21"30.18"30.15"30.15"30.12"30.15"30.15"30.18"30.18"30.18"30.18"30.15"30.15"30.15"30.15"30.12"30.12"30.09"30.09"30.09"30.09"30.12"30.12"30.12"30.06"30.06"30.03"30"30"30"30"30.03"30.03"30"30"30.03"30.03"
Wind Speed 4.6 mph4.2 mph4.5 mph3.9 mph4.1 mph4.4 mph4.8 mph4.1 mph3.5 mph2.6 mph1.8 mph2 mph1.4 mph2 mph1.4 mph1.3 mph1.7 mph3.7 mph4.1 mph3.8 mph4.1 mph4 mph4 mph3.8 mph4.1 mph4 mph4.3 mph4 mph2.8 mph1.7 mph2.4 mph2.4 mph2.9 mph2.6 mph3 mph3 mph2.7 mph2 mph2.4 mph2.5 mph3.1 mph1.1 mph1.4 mph2.2 mph1.2 mph0.8 mph2.1 mph1.5 mph
Wind
Direction
323°
NW
324°
NW
316°
NW
324°
NW
333°
NNW
330°
NNW
321°
NW
331°
NNW
346°
NNW
26°
NNE
52°
NE
92°
E
110°
ESE
150°
SSE
136°
SE
124°
SE
315°
NW
324°
NW
327°
NNW
328°
NNW
329°
NNW
325°
NW
331°
NNW
331°
NNW
330°
NNW
334°
NNW
329°
NNW
324°
NW
336°
NNW
350°
N
31°
NNE
22°
NNE
32°
NNE
22°
NNE
32°
NNE
17°
NNE
14°
NNE
343°
NNW
354°
N
355°
N
341°
NNW
347°
NNW
45°
NE

N
21°
NNE
120°
ESE
148°
SSE
146°
SE

Daily Forecast

Date High Low Precip. Humidity
Today
Dec 2

Clouds
48 °F
29 °F
0%
48%
Saturday
Dec 3

Rain
42 °F
33 °F
90%
91%
Sunday
Dec 4

Rain
42 °F
38 °F
100%
96%
Monday
Dec 5

Rain
42 °F
41 °F
98%
97%
Tuesday
Dec 6

Clouds
50 °F
35 °F
22%
70%
Wednesday
Dec 7

Clear
50 °F
32 °F
0%
60%
Thursday
Dec 8

Snow
41 °F
39 °F
62%
90%
Friday
Dec 9

Snow
40 °F
36 °F
100%
100%
Saturday
Dec 10

Snow
38 °F
32 °F
88%
99%
Sunday
Dec 11

Rain
38 °F
36 °F
98%
100%
Monday
Dec 12

Rain
42 °F
32 °F
100%
94%
Tuesday
Dec 13

Snow
35 °F
28 °F
100%
99%
Wednesday
Dec 14

Clouds
40 °F
23 °F
0%
96%
Thursday
Dec 15

Clouds
40 °F
24 °F
0%
88%
Friday
Dec 16

Clouds
41 °F
29 °F
0%
92%
Saturday
Dec 17

Clear
41 °F
23 °F
0%
85%

Temperature 8-14 Day Outlook



Precipitation 8-14 Day Outlook




Quick Links
Keswick Reservoir News
Keswick Reservoir Photos
Keswick Reservoir Videos




About Us
Contact Us
Site Map
Search Site
Advertise With Us
   
Keswick.USLakes.info
THE KESWICK RESERVOIR WEBSITE

Copyright 2022, Lakes Online
Privacy    |    Legal